This is the latest recevied weather packets stored in our database for station/object IW0HP-3. If no packets are shown the sender has not sent any weather packets the latest 10 day(s).
| Time | Temp. | Humidity | Pressure | Rain* | Wind** | Luminosity | Snow |
|---|---|---|---|---|---|---|---|
| 1788549003 | 29.44° C | 40% | 1017.6 hPa | - | - | - | - |
| 1788547799 | 29.44° C | 41% | 1017.4 hPa | - | - | - | - |
| 1788546594 | 30° C | 41% | 1017.3 hPa | - | - | - | - |
| 1788545390 | 30° C | 41% | 1017.1 hPa | - | - | - | - |
| 1788544185 | 30.56° C | 43% | 1016.7 hPa | - | - | - | - |
| 1788542981 | 30.56° C | 42% | 1016.5 hPa | - | - | - | - |
| 1788541776 | 31.11° C | 34% | 1016.7 hPa | - | - | - | - |
| 1788540572 | 31.11° C | 35% | 1016.7 hPa | - | - | - | - |
| 1788539367 | 31.67° C | 33% | 1016.7 hPa | - | - | - | - |
| 1788538163 | 31.67° C | 31% | 1016.7 hPa | - | - | - | - |
| 1788536958 | 31.67° C | 29% | 1016.8 hPa | - | - | - | - |
| 1788535754 | 32.22° C | 30% | 1016.8 hPa | - | - | - | - |
| 1788534549 | 32.22° C | 30% | 1016.8 hPa | - | - | - | - |
| 1788533345 | 32.22° C | 30% | 1016.7 hPa | - | - | - | - |
| 1788532140 | 32.22° C | 31% | 1016.8 hPa | - | - | - | - |
| 1788530935 | 32.22° C | 32% | 1016.9 hPa | - | - | - | - |
| 1788529731 | 32.22° C | 33% | 1016.8 hPa | - | - | - | - |
| 1788528527 | 32.22° C | 33% | 1016.9 hPa | - | - | - | - |
| 1788527322 | 32.22° C | 33% | 1017 hPa | - | - | - | - |
| 1788526118 | 32.22° C | 32% | 1017.2 hPa | - | - | - | - |
| 1788524913 | 32.22° C | 33% | 1017.3 hPa | - | - | - | - |
| 1788523709 | 31.67° C | 34% | 1017.5 hPa | - | - | - | - |
| 1788522504 | 31.67° C | 35% | 1017.5 hPa | - | - | - | - |
| 1788521299 | 31.67° C | 36% | 1017.6 hPa | - | - | - | - |
| 1788520095 | 31.11° C | 37% | 1017.8 hPa | - | - | - | - |
* Rain since midnight (hover to see other rain measurements)
** Current wind speed in m/s (hover to see current wind gust speed)